sat.trackr.live / text

‹ back to catalog

YAOGAN-35 05A

NORAD 53760 · 2022-109A

PAYLOAD ACTIVE UNKNOWN

§ Identity

Operator
Country
PRC
Launch date
2022-09-06
Launch site
XICLF
Launch vehicle
Mass (kg)
RCS (m²)

External: N2YO · Heavens-Above · Gunter

§ Orbital elements

Epoch: 2026-09-20T23:08:28.818816Z

Period
94.55 min
Inclination
35.0061°
Eccentricity
0.0005116
Mean motion
15.23051945 rev/d
Perigee alt
493.1 km
Apogee alt
500.2 km
Semi-major
6,874.8 km
B*
2.4388e-4
RAAN
96.6817°
Arg perigee
154.3059°
Mean anomaly
205.7910°
Rev number
22,522

§ Raw data

YAOGAN-35 05A1 53760U 22109A   26263.96422244  .00005853  00000+0  24388-3 0  99952 53760  35.0061  96.6817 0005116 154.3059 205.7910 15.23051945225227

JSON: /api/v1/satellites/53760 · /tle

For live sub-satellite position, see the globe view (requires WebGL).

§ Visibility from observer

Set your observer location to see the next 7 days of passes ≥ 10°. The values pass through the URL so the page stays shareable.

No JS? Fill the form by hand. The geolocation button needs JavaScript.